Miscellaneous Local Product
Issued by NWS North Platte, NE

Home | Current Version | Previous Version | Graphics & Text | Print | Product List | Glossary On
Versions: 1 2 3 4 5 6 7 8 9 10 11 12 13 14 15 16 17 18 19 20 21 22 23 24 25 26 27 28 29 30 31 32 33 34 35 36 37 38 39 40 41 42 43 44 45 46 47 48 49 50
871
AXUS43 KLBF 211310
MISLBF


WESTERN AND NORTH CENTRAL NEBRASKA HOURLY WEATHER ROUNDUP
NATIONAL WEATHER SERVICE NORTH PLATTE NE
800 AM CDT SUN MAY 21 2017

NOTE: "FAIR" INDICATES FEW OR NO CLOUDS BELOW 12,000 FEET WITH NO
SIGNIFICANT WEATHER AND/OR OBSTRUCTIONS TO VISIBILITY.

NOTE: STATIONS NOT REPORTING VARIABLES SUCH AS SKY/WEATHER OR
PRESSURE ARE PROVIDED BY RAWS AND APRS NETWORKS AND ARE NOT UNDER
NATIONAL WEATHER SERVICE QUALITY CONTROL.

...OBSERVATIONS IN AND NEAR THE EASTERN PANHANDLE OF NEBRASKA...

CITY           SKY/WX    TMP DP  RH WIND       PRES   REMARKS
PINE RIDGE     SUNNY     41  38  89 W3        30.10R
GORDON         FAIR      42  36  78 W10       30.09R
CHADRON        SUNNY     42  38  85 W7        30.12R
ALLIANCE       CLOUDY    38  36  92 W8        30.12R WCI  32
SIDNEY         SUNNY     41  38  89 NW7       30.16R
CRESCENT LAKE    N/A     42  37  82 W6          N/A
$$

...OBSERVATIONS IN NORTHERN NEBRASKA AND FAR SOUTHERN SOUTH DAKOTA...

CITY           SKY/WX    TMP DP  RH WIND       PRES   REMARKS
WINNER         FAIR      42  37  82 NW6       30.05R
VALENTINE      SUNNY     41  34  76 W9        30.06R
THEDFORD       SUNNY     36  33  89 NW5       30.10R WCI  32
AINSWORTH      SUNNY     38  37  94 NW5       30.05S WCI  35
O`NEILL        SUNNY     42  37  83 NW12      30.04S
ORD            SUNNY     41  37  86 N3        30.07R
BROKEN BOW     SUNNY     43  37  79 W9        30.08R
VALENTINE NWR    N/A     37  32  82 W9          N/A  WCI  30
HALSEY           N/A     35  32  90 W6          N/A  WCI  30
BUTTE            N/A     39  37  93 N3          N/A
CHAMBERS         N/A     48  39  72 N3          N/A
EWING            N/A     42  39  90 NW9         N/A
$$

...OBSERVATIONS IN SOUTHWEST NEBRASKA AND FAR NORTHEAST COLORADO...

CITY           SKY/WX    TMP DP  RH WIND       PRES   REMARKS
WRAY           FAIR      43  41  93 W3        30.17R
IMPERIAL       SUNNY     44  39  82 W12       30.14R
OGALLALA       SUNNY     41  40  93 SW3       30.13R
NORTH PLATTE   CLOUDY    41  40  96 NW5       30.11R
MCCOOK         CLOUDY    42  41  96 W7        30.14R
LEXINGTON      SUNNY     41  39  93 NW9       30.11R
STAPLETON        N/A     38  36  92 CALM        N/A
GOTHENBURG       N/A     38  35  90 W5          N/A  WCI  34
CALLAWAY         N/A     37  35  94 NW10        N/A  WCI  30
$$

...OBSERVATIONS IN CENTRAL LINCOLN COUNTY AREA...

CITY           SKY/WX    TMP DP  RH WIND       PRES   REMARKS
N.P. AIRPORT   CLOUDY    41  40  96 NW5       30.11R
N.P. DOWNTOWN    N/A     43  39  87 CALM        N/A
N.P. SOUTHEAST   N/A     43  39  86 CALM        N/A
N.P. HILLCREST   N/A     40  38  91 NW7         N/A
$$

...SOME OBSERVATIONS FROM AROUND THE REGION...

CITY           SKY/WX    TMP DP  RH WIND       PRES   REMARKS
DENVER         MOSUNNY   47  34  60 SW6       30.18R
LIMON          PTSUNNY   41  39  93 N3        30.20R
ASPEN          CLOUDY    34  24  67 S3        30.26R
LARAMIE        CLOUDY    36  32  85 S5        30.22R WCI  32
CASPER         PTSUNNY   43  39  86 SW7       30.19R
CHEYENNE       CLOUDY    43  32  65 NW8       30.20R
SCOTTSBLUFF    MOSUNNY   43  38  82 NW8       30.15R
GRAND ISLAND   SUNNY     43  39  86 W9        30.09R
OMAHA          PTSUNNY   47  39  74 W9        30.03R
SIOUX FALLS    CLOUDY    39  38  96 NW13      29.94R WCI  31
PIERRE         SUNNY     45  37  73 NW15      30.03R
RAPID CITY     SUNNY     49  33  54 W6        30.07R
BISMARCK       MOSUNNY   42  36  79 W7        30.04R
KANSAS CITY    MOSUNNY   48  41  76 W10       30.11R
HILL CITY      SUNNY     45  43  93 NW3       30.14R
WICHITA        MOSUNNY   48  42  80 SW10      30.18R
DODGE CITY     CLOUDY    47  43  86 SW8       30.18R
OKLAHOMA CITY  MOSUNNY   55  42  61 NE10      30.19R
DALLAS         CLOUDY    64  56  75 SE6       30.13R THUNDER
AMARILLO       SUNNY     51  40  65 SE10      30.20R
$$




USA.gov is the U.S. government's official web portal to all federal, state and local government web resources and services.